User: anonymous   Login
Location: Meanaryar
(48.4161°N, 4.7315°W)
Time: 18:03:27
(UTC+00:00)
Language:

Cosmos 1125 Rocket - Orbit

View from above orbital plane
View from above orbital plane
View from above satellite
View from above satellite

Ground track
Ground track

The orbit data is extracted from the following two-line orbital elements,

1 11511U 79078B   20330.87609531 +.00000060 +00000-0 +29035-4 0  9996
2 11511 074.0345 163.4109 0014595 100.7238 259.5559 14.36906393158966
Epoch (UTC): 25 November 2020 21:01:34
Eccentricity: 0.0014595
inclination: 74.0345°
perigee height: 758 km
apogee height: 779 km
right ascension of ascending node: 163.4109°
argument of perigee: 100.7238°
revolutions per day: 14.36906393
mean anomaly at epoch: 259.5559°
orbit number at epoch: 15896

The dashed part of the orbit path shows where the satellite is in the earth's shadow,  

DLR